Torna al catalogo

FENGYUN 1C DEB

AttivoSSO
NORAD 30648·DEBRIS·🇨🇳 China

Lanciato May 10, 1999 da Taiyuan Satellite Launch Center

Loading…

Prossimi Passaggi (prossime 24 ore)

TLE

AggiornatoSource: Space-Track

Epoca: Sep 14, 2026, 13:25 UTC

1 30648U 99025APF 26257.55926546  .00004132  00000-0  10327-2 0  9995
2 30648  98.6440   4.2757 0030567  11.7950   1.1728 14.51801609 18657

Traccia FENGYUN 1C DEB in tempo reale con AllMySat

Download on the App Store